"Pseudo-MPEC" for C2DHE12

Created 2020 Mar 31 10:07:05 UT using Find_Orb

Click here for an explanation of pseudo-MPECs

 
 Astrometry: 
     C2DHE12  C2020 01 04.37133 10 26 28.13 +26 18 21.2    ~3NKM 20.9 GVNEOCPG96
     C2DHE12  C2020 01 04.37647 10 26 27.93 +26 18 21.2    ~3NKM 21.0 GVNEOCPG96
     C2DHE12  C2020 01 04.38160 10 26 27.81 +26 18 21.6    ~3NKM 20.9 GVNEOCPG96
     C2DHE12  C2020 01 04.38676 10 26 27.66 +26 18 21.6    ~3NKM 20.8 GVNEOCPG96
     C2DHE12  C2020 01 23.39089 10 14 40.74 +26 26 10.5    ~3MK7 20.6 GVNEOCPG96
     C2DHE12  C2020 01 23.39978 10 14 40.37 +26 26 10.8    ~3MK7 20.5 GVNEOCPG96
     C2DHE12  C2020 01 23.40682 10 14 40.05 +26 26 11.3    ~3MK7 20.6 GVNEOCPG96
     C2DHE12  C2020 01 23.41193 10 14 39.84 +26 26 11.1    ~3MK7 20.5 GVNEOCPG96
     C2DHE12  C2020 01 27Cmx[!_hvlt*fY$T]bAstrometry^%sxVtICAQFdxxyS8gO*4^(mbF52
     C2DHE12  C2020 01 27\*$t/Cw(A-WEQxvQNO;'g\1KxE/ZlLpvPk_MBBIOynQDWmrabyNxF52
     C2DHE12  C2020 01 27dw/c1U5(Q@skm;3Dfd%=.\dwZL$DU.CgcYooSB`F7s=[_'`V6w@pF52
     C2DHE12  C2020 01 31tF*$)ZZ7$GT7pIjl/6]\-u5YQ%0KO^q49v=s0TQ1bh'2XMuI02V(F51
     C2DHE12  C2020 01 31-E;_$Kd.06B#2_vvm(-UphA);q,K)-6bIO@t:N^Ppa/88@y2jgSMF51
     C2DHE12  C2020 01 31(JY-Sv:D8csX8gavq18gA*Yw$X/nE=B'gU4uQ)silF^4c5_NMMo1F51
     C2DHE12  C2020 02 02.34704 10 07 13.12 +26 27 44.2    ~3MK7 20.3 GVNEOCPG96
     C2DHE12  C2020 02 02.35217 10 07 12.89 +26 27 43.9    ~3MK7 20.2 GVNEOCPG96
     C2DHE12  C2020 02 02.35730 10 07 12.63 +26 27 44.1    ~3MK7 20.4 GVNEOCPG96
     C2DHE12  C2020 02 02.36244 10 07 12.40 +26 27 44.3    ~3MK7 20.4 GVNEOCPG96
     C2DHE12  C2020 02 21.30188 09 51 46.72 +26 18 22.9    ~3MK7 20.2 GVNEOCPG96
     C2DHE12  C2020 02 21.30701 09 51 46.45 +26 18 22.6    ~3MK7 20.1 GVNEOCPG96
     C2DHE12  C2020 02 21.31727 09 51 45.94 +26 18 22.0    ~3MK7 20.3 GVNEOCPG96
     C2DHE12  C2020 03 22.22647 09 29 01.87 +25 17 41.1    ~3M6M 20.2 GVNEOCPG96
     C2DHE12  C2020 03 22.23211 09 29 01.63 +25 17 40.2    ~3M6M 20.3 GVNEOCPG96
     C2DHE12  C2020 03 22.23775 09 29 01.42 +25 17 39.3    ~3M6M 20.2 GVNEOCPG96
     C2DHE12  C2020 03 22,G5eV]dMYlo5Zjfcc00c2nwO)]#0dsAp@05Pn$Mlsb=OjZ_TCKu`F51
     C2DHE12  C2020 03 22X#pvvllp(!p(%DNR`TI5x)NRLyU!y;3#e/S1$4*%^f^(nji9X!BaF51
     C2DHE12  C2020 03 22.24340 09 29 01.19 +25 17 38.0    ~3M6M 20.3 GVNEOCPG96
     C2DHE12  C2020 03 22.81100 09 28 39.19 +25 15 54.9    ~3MJq 19.9 VVNEOCP033
     C2DHE12  C2020 03 22.81267 09 28 39.12 +25 15 54.5    ~3MJq 19.7 VVNEOCP033
     C2DHE12  C2020 03 22.81434 09 28 39.05 +25 15 54.2    ~3MJq 19.7 VVNEOCP033
     C2DHE12  C2020 03 23-H`J:1]qQG$bI(v-a[My=Ai`w(sR$Z:'tV+hBB_si58F2ybGLaGQF51
     C2DHE12  C2020 03 23YE3RQ8fks:$]DBqj:,\;\#?bd8doq/)#:uC,H].Lt,L=#p1/SL(iF51
     C2DHE12  C2020 03 23O!Qn9;cd$Fgsud%CgIvsPmvF%+SQ3B[5NO(Clmredacted;94uhyF51
     C2DHE12  C2020 03 23Tf!A5w:?k6fJus!cp6RDeZAXMCKbrm;LYmoma48wTbM(6xThvtH=F51
     C2DHE12 KC2020 03 23,P;Wl3J-:*#aSJIA=PYMXw=0,+,Z.#f8C*,Gk+Ha8rdZ5edolvF0L01
     C2DHE12 KC2020 03 23,,o8fWo,o4)ytQDN6l5OecT?M#eI$u/dEG+7r*AKXLp,bbvk'PT6L01
     C2DHE12 FC2020 03 23o[mZ*q0m6/:Ae12]o-cNYY4vu0gW`vGUW:jfT/c$wN5/f^q)2PGL246
     C2DHE12 VC2020 03 23k1nHrjI'GdKc*%Mclick`BQ7K@k$qtkH68N'#B*ufS#4qNQU.X;*246
     C2DHE12 FC2020 03 23/,UO-.$tydk/ln+Pjr]G`UOkd7JZB3fQcsRqRLpXk;g7/sgyEJ+Y246
     C2DHE12 FC2020 03 23*PDA$c4DoQGpML(gJUvwBPBG*'Z4W$V2\sF'BQyiSI=Y+[FUkvRg246
     C2DHE12 VC2020 03 23N41/oEgMUyd)yEKhere*xo7G2pRGpbllnZsCn*,=)sE9Lcv%b!/`246
     C2DHE12 VC2020 03 23pF-\9*2!PYp0RmY6yvsMufy^bYFdh`Zimq_aULb++27%u'%Kfor,246
     C2DHE12  C2020 03 24.22853 09 27 45.10 +25 11 34.8    ~3O6M 20.5 GVNEOCP703
     C2DHE12  C2020 03 24.23425 09 27 44.74 +25 11 33.4    ~3O6M 19.9 GVNEOCP703
     C2DHE12  C2020 03 24.24569 09 27 44.32 +25 11 31.0    ~3O6M 20.3 GVNEOCP703
     C2DHE12  C2020 03 24GA+_)`G-F(P:S5U.a=9lPU]/PdhV?t#`Zbix7_Is5=LKrZ25MY?)246
     C2DHE12  C2020 03 24)3'qilF`c)$etd4my+sJ#-7m5pf2o+mgOm3O-987=Xe[F3[R,_/n246
     C2DHE12  C2020 03 24v)li!Y8`%itl?[+1L#C8^jKsv1Y+%U.bQ=[i$;Imi;fK!RwXuipe246
     C2DHE12  C2020 03 24:j;L#G+2/H4`eI)ieR7Tn#YIUW'+Fwp;AfAx31BNE\:Ie]hNBfR5246
     C2DHE12  C2020 03 24a3pl3G=(C]IApPRlXRNrU90C1^?wjuf,b6Rv^IX',(2/njav=p6M246
     C2DHE12  C2020 03 249!e2yV.?bpV:Fnd%OJaQMs`u=!r4qbad='wp]+6yUFm:1[i\Btco246
     C2DHE12 KC2020 03 245826dGbbDi#:b*YrPMtD8UgNQb7FQ*XAnY)uBd?eg3F*%H,PmE_ZB96
     C2DHE12 KC2020 03 24Mjve6MIHo=(xlJbei*y5hq;D?GN2FgmtWi9mqb;fYCLG[7kej-auB96
     C2DHE12 KC2020 03 24Q'wY9CF`q#*dp!eg:c+fdfWU+H\8/WC6.V*,j#YNBOOop2(vB`RNB96
     C2DHE12 KC2020 03 29.h@qy..N8:Q\q01m:`pc12u3oq/U#7=E24EPv-X4!/qLt\@4v6Q-858
     C2DHE12 KC2020 03 29LtqC*!ACFS2E].Rw-%HZy*gjhljbdhljChhiu5Y.AO_)T-c.k=Or858
     C2DHE12 KC2020 03 29-n`y8cZIT#7BG2v6E^1ND:]+#kw@@o'h/''eD;4R?Ktf8JV7/gf-858
     C2DHE12 1C2020 03 29(I8_n5Z4^aWmh^3gyG?rMn8?nV'6v4EMW9b7(!y_nAw[.P)N#0B;Q62
     C2DHE12 1C2020 03 29O:d+B(Vr']OuAW!@o;m+$C4,FDNsBZXd4:A`B$5q$VN%PDOF74J4Q62
     C2DHE12 1C2020 03 29HV5F^+seQkSFf9BD(9#9A\ieeiy9j!I%Ga0tBug(LSAnQJa.c(k,Q62
     C2DHE12 KC2020 03 30G0v#dimemsgT)avYgcamp];-0J^UV+@,.*vIiO6w2RNks7-gbj(dH36
     C2DHE12 KC2020 03 30Q_N!C*WOJd7.:mW]BnZU.s-`bQC((T]K8;TYlJM_(0\PD7PS7#SyH36
     C2DHE12 KC2020 03 30doPaO3i]pnveIlxoqKTy5j)Z'33s6@LTi;i*U:y+%xXqo)%Hsp+SH36
     C2DHE12  C2020 03 30Q@JT`v/)SJ!v/V6bbpd:N5/1:1*d]ZWfh==QpV!Feexplanation246
     C2DHE12  C2020 03 302]'NSkh[QltbQ_Xh!lFAZ=^2.hs/-_l43yYU49,3H1LZ'LIa=as5246
     C2DHE12  C2020 03 30J;cYH%6\$I78bxrOF^'^]-8,nUHAEL\.+80dNFhw^Z96,i6jEq((246
     C2DHE12  C2020 03 30%@isP7oO=+]DGfLn.$Rh=BN,Xs+P!4/v#\nQU1]l3[9y--a19OO5246
     C2DHE12  C2020 03 30W5nPAx,Ua\2CZOqE2=2m0eTrLfeUo!2*I=%!I4b_F+!ZZr%Fi7mS246
     C2DHE12 !C2020 03 31HKN4k))lgoYmp\'XA(=Bbxnhx7YFj\np0\an?-d,wyrY[*TcGP%y673
     C2DHE12 !C2020 03 31Dmx5MD%clOsNjgmw+SS(-%ah/o+WE0ViX.X+,8HxgAXcM/n'cQhB673
     C2DHE12 !C2020 03 3180R.;/-%?w]N/BZGj35f9G)A0wHMNjpAH);16@PgX$w9DE31sZ::673

Station data:
(033) Karl Schwarzschild Observatory, Tautenburg  (N50.980140 E11.711240)
   Germany. 1.3-m Schmidt.
(246) Klet Observatory-KLENOT  (N48.863293 E14.288100)  Czech Republic.
   1.06-m KLENOT telescope.
(673) Table Mountain Observatory, Wrightwood  (N34.381488 W117.682170)
   US/California.  Observer W. M. Owen Jr. 0.61-m f/16 reflector + CCD.
(703) Catalina Sky Survey  (N32.417006 W110.732640)  US/Arizona.  Observers
   T. A. Pruyne, B. M. Africano, E. J. Christensen, G. A. Farneth, D. C.
   Fuls, A. R. Gibbs, A. D. Grauer, H. Gröller, J. A. Johnson, R. A.
   Kowalski, S. M. Larson, G. J. Leonard, D. Rankin, R. L. Seaman, F. C.
   Shelly. 0.68 m Schmidt + 10K CCD.
(858) Tebbutt Observatory, Edgewood  (N35.093872 W106.220000)  US/New Mexico.
(B96) Brixiis Observatory, Kruibeke  (N51.163512 E4.310310)  Belgium.
(F51) Pan-STARRS 1, Haleakala  (N20.707235 W156.255910)  US/Hawaii.
   Observers N. Primak, A. Schultz, S. Watters, J. Thiel, T. Goggia. Measurer
   PS1 Science Consortium. 1.8-m Ritchey-Chrétien + CCD.
(F52) Pan-STARRS 2, Haleakala  (N20.707384 W156.255910)  US/Hawaii. 1.8-m
   Ritchey-Chrétien + CCD.
(G96) Mt. Lemmon Survey  (N32.442754 W110.788720)  US/Arizona.  Observers T.
   A. Pruyne, B. M. Africano, E. J. Christensen, G. A. Farneth, D. C. Fuls,
   A. R. Gibbs, A. D. Grauer, H. Gröller, J. A. Johnson, R. A. Kowalski, S.
   M. Larson, G. J. Leonard, D. Rankin, R. L. Seaman, F. C. Shelly. 1.5-m
   reflector + 10K CCD.
(H36) Sandlot Observatory, Scranton  (N38.797693 W95.706400)  US/Kansas.
   Observer G. Hug. 0.56-m reflector + CCD.
(L01) Višnjan Observatory, Tičan  (N45.290900 E13.749300)  Croatia.
   Observers K. Korlević, E. Pettarin. Measurer E. Pettarin. 1.0-m f/2.9
   reflector + CCD.
(Q62) iTelescope Observatory, Siding Spring  (S31.273289 E149.064420)
   Australia/NSW. 0.50-m f/6.8 astrograph + CCD + focal reducer, 0.70-m f/6.6
   astrograph + CCD.

Orbital elements:  C2DHE12
   Perihelion 2021 Nov 14.063056 +/- 0.124 TT =  1:30:48 (JD 2459532.563056)
Epoch 2020 Mar 31.0 TT = JDT 2458939.5   Ju: 0.9762   Ne: 0.5489
M 359.97934155 +/- 0.0027           (J2000 ecliptic)          AutoNEOCP
n   0.00003483 +/- 4.52e-6          Peri.  228.00491 +/- 0.019
a 928.549153 +/- 81.2               Node   321.88497 +/- 0.0021
e   0.9942593 +/- 0.000497          Incl.   93.95103 +/- 0.010
P  28294                   H 12.0   G  0.15   U  4.5  
q 5.33047304 +/- 0.00119    Q 1851.76783 +/- 143
From 71 observations 2020 Jan. 4-Mar. 31; mean residual 0".46
Residuals in arcseconds: 
200104 G96  .07+  .02-    200322 F51  .15-  .06+    200324 246  .61+  .08-    
200104 G96  .44-  .16-    200322 F51  .08+  .11+    200324 246  .75+  .57+    
200104 G96  .13+  .11+    200322 G96  .13+  .20-    200324 246  .05-  .37-    
200104 G96  .30+  .03-    200322 033  .11-  .18-    200324 B96  .32-  .14-    
200123 G96  .02+  .35-    200322 033  .18-  .28-    200324 B96  .21+  .18-    
200123 G96  .22+  .21-    200322 033  .24-  .28-    200324 B96  .34+  .41-    
200123 G96  .01+  .16+    200323 F51  .18-  .04-    200329 858  .59+  .24+    
200123 G96  .16+  .13-    200323 F51  .02+  .06-    200329 858  .52+  .11-    
200127 F52  .09-  .10-    200323 F51  .01-  .12-    200329 858  .01-  .19-    
200127 F52  .01+  .06+    200323 F51  .05+  .08-    200329 Q62  .03-  .47-    
200127 F52  .35-  .21+    200323 L01  .05-  .26+    200329 Q62  .03-  .50-    
200131 F51  .01+  .00     200323 L01  .32+  .26-    200329 Q62  .18-  .13-    
200131 F51  .01-  .07-    200323 246  .58-  .06+    200330 H36  1.1+  .57+    
200131 F51  .06-  .02+    200323 246  1.2+  .47+    200330 H36  .16-  .78+    
200202 G96  .05-  .23+    200323 246  .26+  .45+    200330 H36  .36+  .35+    
200202 G96  .13+  .06-    200323 246  .97-  .04+    200330 246  1.2+  .45-    
200202 G96  .09-  .14+    200323 246  1.4-  .08-    200330 246  .50-  .08-    
200202 G96  .10+  .35+    200323 246  1.7-  2.0+    200330 246  .34-  .19+    
200221 G96  .00   .12-    200324 703  1.3+  .71+    200330 246  .18-  .26+    
